Location: Highland Meadows Observing Site
(48.4428°N, 114.5461°W)
Time: 11:09:40
(UTC-07:00)

Amateur Radio Satellites - All Passes

Search period start: 21 January 2018 10:39
Search period end: 22 January 2018 10:39
Location: Highland Meadows Observing Site, 48.4428°N, 114.5461°W

Satellite Date Start Highest point End Downlink Frequencies (MHz)
Time Altitude Azimuth
QB50P2 21 Jan 10:43:02 10:46:33 26° 65° (ENE) 10:50:05 145.880/145.840
Oscar 11 21 Jan 10:47:36 10:50:07 15° 301° (WNW) 10:52:37 .
YUBILEINY 21 Jan 10:48:13 10:57:01 88° 262° (W) 11:05:43 435.215
PCSat 21 Jan 10:55:27 11:00:53 85° 307° (NW) 11:06:21 145.827
DELFI C3 21 Jan 10:57:28 11:01:09 40° 290° (WNW) 11:04:50 145.870
BEESAT 2 21 Jan 10:59:00 11:02:49 42° 121° (ESE) 11:06:40 435.950
SO-50 21 Jan 11:09:06 11:10:55 12° 12° (NNE) 11:12:45 436.795
DUCHIFAT 1 21 Jan 11:11:28 11:15:15 33° 67° (ENE) 11:19:05 145.980
EO-79 21 Jan 11:13:07 11:17:09 44° 69° (ENE) 11:21:12 145.935-145.965
ESTCUBE 1 21 Jan 11:29:05 11:32:53 26° 94° (E) 11:36:39 437.505/2401.250
Max Valier Satellite 21 Jan 11:30:23 11:33:26 24° 294° (WNW) 11:36:28 145.860
LO-87 21 Jan 11:31:31 11:34:50 32° 97° (E) 11:38:06 145.935 - 145.965
PRISM 21 Jan 11:36:06 11:38:52 18° 268° (W) 11:41:39 437.425
O/OREOS (USA 219) 21 Jan 11:44:22 11:47:30 19° 259° (WSW) 11:50:39 437.305
Gurwin Techsat 1B 21 Jan 11:47:49 11:50:55 16° 54° (NE) 11:54:02 435.225
BEESAT 3 21 Jan 11:47:53 11:51:18 26° 322° (NW) 11:54:44 437.485
EO-88 21 Jan 11:47:53 11:50:48 23° 294° (WNW) 11:53:42 145.990 - 145.960
POLYITAN 1 21 Jan 11:48:01 11:52:15 82° 256° (WSW) 11:56:34 437.675
AO-91 21 Jan 11:48:46 11:49:25 10° 58° (ENE) 11:50:05 145.960
AIST 2D 21 Jan 11:52:14 11:54:55 20° 267° (W) 11:57:36 435.315
Oscar 19 21 Jan 11:56:17 12:00:14 22° 59° (ENE) 12:04:11 437.125/150
NANOSAT C BR1 21 Jan 12:03:10 12:07:21 65° 258° (WSW) 12:11:36 145.865
BUGSAT 1 21 Jan 12:10:37 12:14:18 33° 67° (ENE) 12:18:04 437.445
QB50P2 21 Jan 12:18:16 12:22:11 36° 263° (W) 12:26:10 145.880/145.840
RS-15 21 Jan 12:23:54 12:35:09 39° 344° (NNW) 12:46:03 29.354- 29.394
AO-7 21 Jan 12:31:21 12:36:43 19° 39° (NE) 12:42:05 .
BEESAT 2 21 Jan 12:37:05 12:40:39 29° 321° (NW) 12:44:14 435.950
PCSat 21 Jan 12:40:52 12:45:04 22° 326° (NNW) 12:49:18 145.827
YUBILEINY 21 Jan 12:46:30 12:52:33 22° 284° (WNW) 12:58:36 435.215
AO-85 21 Jan 12:47:11 12:51:10 71° 126° (SE) 12:55:30 145.980
DUCHIFAT 1 21 Jan 12:47:21 12:50:56 27° 265° (W) 12:54:34 145.980
SO-50 21 Jan 12:48:52 12:52:54 28° 36° (NE) 12:56:58 436.795
EO-79 21 Jan 12:49:55 12:53:07 20° 268° (W) 12:56:19 145.935-145.965
SPROUT 21 Jan 12:54:16 12:58:27 47° 99° (E) 13:02:37 437.525
VELOX 1 21 Jan 13:02:11 13:06:09 32° 96° (E) 13:10:05 145.980
LO-87 21 Jan 13:05:14 13:08:03 22° 294° (WNW) 13:10:52 145.935 - 145.965
ESTCUBE 1 21 Jan 13:05:37 13:09:47 38° 292° (WNW) 13:13:55 437.505/2401.250
AO-91 21 Jan 13:21:58 13:25:20 68° 258° (WSW) 13:28:52 145.960
Gurwin Techsat 1B 21 Jan 13:24:47 13:30:06 85° 73° (ENE) 13:35:28 435.225
Oscar 19 21 Jan 13:33:57 13:39:06 64° 258° (WSW) 13:44:18 437.125/150
BUGSAT 1 21 Jan 13:46:16 13:49:42 26° 266° (W) 13:53:12 437.445
BEESAT 2 21 Jan 14:19:29 14:19:39 10° 343° (NNW) 14:19:48 435.950
AO-7 21 Jan 14:19:44 14:27:53 61° 62° (ENE) 14:36:05 .
50 SAT 21 Jan 14:21:52 14:24:47 35° 99° (E) 14:27:40 437.505
AO-85 21 Jan 14:28:44 14:32:05 23° 328° (NNW) 14:35:38 145.980
SO-50 21 Jan 14:29:05 14:33:44 63° 235° (SW) 14:38:26 436.795
PCSat 21 Jan 14:29:11 14:30:37 11° 352° (N) 14:32:03 145.827
SPROUT 21 Jan 14:30:49 14:34:03 21° 297° (WNW) 14:37:16 437.525
VELOX 1 21 Jan 14:38:41 14:42:33 31° 294° (WNW) 14:46:24 145.980
UKube-1 21 Jan 14:38:53 14:42:56 39° 98° (E) 14:46:58 .
RS-15 21 Jan 14:40:17 14:51:29 40° 18° (NNE) 15:02:07 29.354- 29.394
ITAMSAT 1 21 Jan 14:42:03 14:46:46 37° 65° (ENE) 14:51:30 435.822/435.867
DX 1 21 Jan 14:52:06 14:56:28 85° 107° (ESE) 15:00:49 434.975-435.025
MOZHAYETS 4 21 Jan 15:01:29 15:05:13 23° 92° (E) 15:08:54
Gurwin Techsat 1B 21 Jan 15:07:43 15:10:45 15° 272° (W) 15:13:46 435.225
BEESAT 21 Jan 15:16:39 15:20:06 19° 91° (E) 15:23:31 436.000
M-CUBED/EXP-1 PRIME 21 Jan 15:41:54 15:45:56 43° 65° (ENE) 15:49:42 437.505
50 SAT 21 Jan 15:54:23 15:56:13 15° 296° (WNW) 15:58:02 437.505
DOVE 4 21 Jan 16:06:24 16:10:29 49° 71° (ENE) 16:14:31 437.250
AO-85 21 Jan 16:13:05 16:14:11 11° 353° (N) 16:15:20 145.980
AO-7 21 Jan 16:13:25 16:21:01 38° 263° (W) 16:28:41 .
PCSat 21 Jan 16:13:52 16:16:35 14° 19° (NNE) 16:19:17 145.827
ITUPSAT 1 21 Jan 16:14:15 16:19:04 62° 102° (ESE) 16:23:50 437.325
UKube-1 21 Jan 16:15:15 16:18:46 25° 297° (WNW) 16:22:18 .
LilacSat-2 21 Jan 16:19:06 16:20:29 12° 59° (ENE) 16:21:51 437.200
XW-2C 21 Jan 16:20:35 16:21:41 11° 59° (ENE) 16:22:47 145.795 - 145.815
ITAMSAT 1 21 Jan 16:21:33 16:26:14 35° 263° (W) 16:30:58 435.822/435.867
CUTE-I 21 Jan 16:22:25 16:25:43 17° 55° (NE) 16:29:01 437.470
DX 1 21 Jan 16:29:56 16:32:02 13° 303° (WNW) 16:34:07 434.975-435.025
MOZHAYETS 4 21 Jan 16:38:08 16:42:35 45° 291° (WNW) 16:46:57
CUBESAT XI-V 21 Jan 16:43:02 16:47:38 60° 101° (E) 16:52:10 437.345
BEESAT 3 21 Jan 16:45:52 16:48:41 18° 32° (NNE) 16:51:29 437.485
KAITUO 1B 21 Jan 16:51:30 16:53:53 16° 63° (ENE) 16:56:15 145.475/437.950
BEESAT 21 Jan 16:53:31 16:58:15 59° 289° (WNW) 17:02:57 436.000
XW-2F 21 Jan 16:54:00 16:56:57 22° 65° (ENE) 16:59:54 145.980 - 146.000
RS-15 21 Jan 16:54:01 17:05:58 79° 49° (NE) 17:17:14 29.354- 29.394
NUDT-PHONESAT 21 Jan 17:00:37 17:03:17 19° 64° (ENE) 17:05:55 437.300
XW-2D 21 Jan 17:03:56 17:07:18 30° 68° (ENE) 17:10:40 145.860 - 145.880
CUTE 1.7 + AOD 2 21 Jan 17:10:20 17:12:23 13° 59° (ENE) 17:14:25 437.475
M-CUBED/EXP-1 PRIME 21 Jan 17:17:06 17:20:25 22° 260° (W) 17:23:36 437.505
HO-68 21 Jan 17:20:09 17:26:28 35° 58° (ENE) 17:32:47 435.675
XW-2B 21 Jan 17:21:14 17:24:53 43° 71° (ENE) 17:28:32 145.730 - 145.750
NO-84 21 Jan 17:24:54 17:27:37 29° 139° (SE) 17:30:14 435.350 FM
CUBEBUG 2 21 Jan 17:30:28 17:33:03 15° 58° (ENE) 17:35:40 437.445
BEESAT 2 21 Jan 17:35:48 17:38:38 18° 31° (NNE) 17:41:26 435.950
UWE-3 21 Jan 17:35:57 17:36:52 11° 54° (NE) 17:37:47 435.000/436.395/437.385
DOVE 4 21 Jan 17:45:38 17:48:29 17° 269° (W) 17:51:19 437.250
LilacSat-2 21 Jan 17:50:18 17:54:10 79° 257° (WSW) 17:58:02 437.200
XW-2C 21 Jan 17:51:25 17:55:15 83° 256° (WSW) 17:59:06 145.795 - 145.815
ITUPSAT 1 21 Jan 17:52:56 17:56:27 21° 301° (WNW) 17:59:58 437.325
AO-85 21 Jan 17:54:22 17:56:40 13° 18° (NNE) 17:59:01 145.980
PCSat 21 Jan 17:56:33 18:01:36 37° 43° (NE) 18:06:36 145.827
CUTE-I 21 Jan 17:59:44 18:05:03 89° 263° (W) 18:10:25 437.470
KKS-1 21 Jan 18:00:45 18:05:10 55° 101° (E) 18:09:33 437.445
AAUSAT CUBESAT 2 21 Jan 18:10:16 18:12:31 14° 60° (ENE) 18:14:44 437.432
STARS 21 Jan 18:14:25 18:18:23 32° 96° (E) 18:22:22 437.465
CUBESAT XI-V 21 Jan 18:21:18 18:24:35 19° 300° (WNW) 18:27:50 437.345
BEESAT 3 21 Jan 18:22:47 18:26:44 85° 233° (SW) 18:30:37 437.485
KAITUO 1B 21 Jan 18:23:50 18:27:29 49° 260° (W) 18:31:09 145.475/437.950
XW-2F 21 Jan 18:27:21 18:30:52 35° 263° (W) 18:34:23 145.980 - 146.000
SEEDS 21 Jan 18:29:16 18:33:17 45° 71° (ENE) 18:37:18 437.485
NUDT-PHONESAT 21 Jan 18:33:18 18:36:50 40° 261° (W) 18:40:23 437.300
Oscar 11 21 Jan 18:35:20 18:36:58 12° 57° (ENE) 18:38:36 .
XW-2D 21 Jan 18:38:17 18:41:28 25° 266° (W) 18:44:40 145.860 - 145.880
XW-2A 21 Jan 18:40:42 18:43:12 19° 65° (ENE) 18:45:42 145.665 - 145.685
CUTE 1.7 + AOD 2 21 Jan 18:43:20 18:47:36 82° 255° (WSW) 18:51:54 437.475
XW-2B 21 Jan 18:56:40 18:59:15 17° 269° (W) 19:01:51 145.730 - 145.750
NO-84 21 Jan 19:01:51 19:04:42 42° 337° (NNW) 19:07:26 435.350 FM
CUBEBUG 2 21 Jan 19:04:37 19:09:01 78° 257° (WSW) 19:13:38 437.445
HO-68 21 Jan 19:06:51 19:13:53 59° 258° (WSW) 19:20:58 435.675
RS-15 21 Jan 19:07:18 19:17:18 36° 254° (WSW) 19:26:56 29.354- 29.394
UWE-3 21 Jan 19:07:58 19:12:24 68° 73° (ENE) 19:16:59 435.000/436.395/437.385
BEESAT 2 21 Jan 19:12:53 19:16:56 87° 48° (NE) 19:20:55 435.950
ZACube-1 21 Jan 19:29:33 19:33:58 62° 73° (ENE) 19:38:29 437.345
AO-85 21 Jan 19:34:00 19:38:25 35° 40° (NE) 19:43:07 145.980
AO-73 21 Jan 19:35:42 19:40:08 63° 73° (ENE) 19:44:40 145.935
KKS-1 21 Jan 19:38:08 19:41:21 20° 299° (WNW) 19:44:33 437.445
PCSat 21 Jan 19:39:57 19:45:08 47° 244° (WSW) 19:50:18 145.827
CUTE-I 21 Jan 19:43:09 19:45:52 14° 273° (W) 19:48:34 437.470
AAUSAT CUBESAT 2 21 Jan 19:43:19 19:47:26 70° 258° (WSW) 19:51:34 437.432
STARS 21 Jan 19:50:48 19:54:41 31° 295° (WNW) 19:58:34 437.465
STRAND 1 21 Jan 20:02:07 20:07:13 56° 101° (E) 20:12:15 437.568
SEEDS 21 Jan 20:06:03 20:09:10 20° 268° (W) 20:12:18 437.485
Oscar 11 21 Jan 20:08:02 20:12:23 85° 78° (ENE) 20:16:47 .
DELFI C3 21 Jan 20:12:08 20:14:57 19° 64° (ENE) 20:17:46 145.870
XW-2A 21 Jan 20:12:35 20:15:41 32° 263° (W) 20:18:49 145.665 - 145.685
FO-29 21 Jan 20:19:44 20:24:31 35° 96° (E) 20:29:17 435.910
Max Valier Satellite 21 Jan 20:38:40 20:41:40 23° 66° (ENE) 20:44:40 145.860
NO-84 21 Jan 20:40:03 20:42:21 21° 358° (N) 20:44:36 435.350 FM
UWE-3 21 Jan 20:46:44 20:49:21 15° 272° (W) 20:52:02 435.000/436.395/437.385
BEESAT 2 21 Jan 20:52:34 20:54:00 12° 250° (WSW) 20:55:24 435.950
EO-88 21 Jan 20:55:03 20:58:00 23° 66° (ENE) 21:00:57 145.990 - 145.960
HO-68 21 Jan 21:01:33 21:03:11 11° 279° (W) 21:04:48 435.675
nSIGHT-1 21 Jan 21:03:22 21:06:15 33° 146° (SE) 21:09:08 .
ZACube-1 21 Jan 21:07:45 21:10:40 17° 271° (W) 21:13:37 437.345
AO-73 21 Jan 21:13:55 21:16:47 17° 271° (W) 21:19:42 145.935
AO-85 21 Jan 21:14:17 21:19:02 49° 239° (WSW) 21:24:04 145.980
ISS 21 Jan 21:20:39 21:23:38 33° 145° (SE) 21:26:37 437.550
TIGRISAT 21 Jan 21:29:00 21:32:27 20° 91° (E) 21:35:52 435.000
STRAND 1 21 Jan 21:41:58 21:46:02 24° 300° (WNW) 21:50:06 437.568
UNISAT 6 21 Jan 21:44:08 21:48:15 29° 94° (E) 21:52:20 437.425
DELFI C3 21 Jan 21:45:41 21:49:25 42° 262° (W) 21:53:10 145.870
Oscar 11 21 Jan 21:47:43 21:49:08 11° 273° (W) 21:50:34 .
YUBILEINY 21 Jan 21:59:49 22:06:13 23° 77° (ENE) 22:12:35 435.215
FO-29 21 Jan 22:04:59 22:09:40 34° 296° (WNW) 22:14:18 435.910
LO-87 21 Jan 22:10:57 22:13:50 23° 66° (ENE) 22:16:44 145.935 - 145.965
Max Valier Satellite 21 Jan 22:11:59 22:15:21 31° 264° (W) 22:18:43 145.860
NO-84 21 Jan 22:17:26 22:20:03 33° 19° (NNE) 22:22:41 435.350 FM
EO-88 21 Jan 22:28:16 22:31:30 29° 264° (W) 22:34:46 145.990 - 145.960
ESTCUBE 1 21 Jan 22:31:47 22:35:57 38° 68° (ENE) 22:40:09 437.505/2401.250
nSIGHT-1 21 Jan 22:39:09 22:42:18 63° 345° (NNW) 22:45:27 .
ISS 21 Jan 22:56:44 22:59:59 64° 344° (NNW) 23:03:14 437.550
TIGRISAT 21 Jan 23:04:50 23:09:28 56° 289° (WNW) 23:14:03 435.000
PRISM 21 Jan 23:11:42 23:15:38 45° 99° (E) 23:19:34 437.425
AIST 2D 21 Jan 23:12:34 23:15:21 22° 94° (E) 23:18:05 435.315
UNISAT 6 21 Jan 23:20:40 23:25:00 38° 292° (WNW) 23:29:20 437.425
POLYITAN 1 21 Jan 23:30:34 23:32:33 13° 88° (E) 23:34:32 437.675
LO-87 21 Jan 23:44:00 23:47:06 28° 264° (W) 23:50:16 145.935 - 145.965
NANOSAT C BR1 21 Jan 23:44:33 23:47:12 16° 90° (E) 23:49:49 145.865
SPROUT 21 Jan 23:50:38 23:54:48 57° 72° (ENE) 23:59:01 437.525
YUBILEINY 21 Jan 23:53:01 00:01:52 88° 276° (W) 00:10:44 435.215
NO-84 21 Jan 23:54:33 23:57:15 41° 218° (SW) 00:00:01 435.350 FM
QB50P2 21 Jan 23:59:04 00:02:46 27° 95° (E) 00:06:25 145.880/145.840
VELOX 1 22 Jan 00:02:35 00:06:46 45° 69° (ENE) 00:10:57 145.980
ESTCUBE 1 22 Jan 00:09:00 00:12:51 27° 266° (W) 00:16:42 437.505/2401.250
nSIGHT-1 22 Jan 00:15:40 00:18:45 45° 5° (N) 00:21:50 .
DX 1 22 Jan 00:16:54 00:19:30 16° 59° (ENE) 00:22:08 434.975-435.025
O/OREOS (USA 219) 22 Jan 00:20:29 00:24:24 30° 106° (ESE) 00:28:20 437.305
DUCHIFAT 1 22 Jan 00:26:38 00:30:35 35° 97° (E) 00:34:29 145.980
EO-79 22 Jan 00:29:14 00:33:25 49° 100° (E) 00:37:34 145.935-145.965
ISS 22 Jan 00:33:34 00:36:45 46° 4° (N) 00:39:56 437.550
AIST 2D 22 Jan 00:45:31 00:48:31 27° 291° (WNW) 00:51:28 435.315
PRISM 22 Jan 00:47:38 00:50:37 20° 298° (WNW) 00:53:36 437.425
50 SAT 22 Jan 00:50:00 00:52:16 19° 66° (ENE) 00:54:34 437.505
POLYITAN 1 22 Jan 01:04:32 01:08:50 74° 286° (WNW) 01:13:06 437.675
AO-91 22 Jan 01:06:59 01:10:13 19° 92° (E) 01:13:39 145.960
NANOSAT C BR1 22 Jan 01:19:03 01:23:16 59° 288° (WNW) 01:27:28 145.865
BUGSAT 1 22 Jan 01:23:15 01:27:10 34° 97° (E) 01:31:02 437.445
SPROUT 22 Jan 01:28:21 01:31:03 16° 270° (W) 01:33:45 437.525
QB50P2 22 Jan 01:34:41 01:38:34 34° 293° (WNW) 01:42:27 145.880/145.840
UKube-1 22 Jan 01:36:27 01:40:37 54° 71° (ENE) 01:44:51 .
Gurwin Techsat 1B 22 Jan 01:37:39 01:42:01 25° 93° (E) 01:46:20 435.225
VELOX 1 22 Jan 01:40:02 01:43:24 22° 267° (W) 01:46:48 145.980
Oscar 19 22 Jan 01:41:49 01:46:32 34° 96° (E) 01:51:11 437.125/150
ITUPSAT 1 22 Jan 01:48:54 01:51:58 17° 57° (ENE) 01:55:03 437.325
DX 1 22 Jan 01:50:53 01:55:11 69° 257° (WSW) 01:59:32 434.975-435.025
nSIGHT-1 22 Jan 01:51:53 01:55:04 79° 204° (SSW) 01:58:15 .
YUBILEINY 22 Jan 01:53:16 02:00:03 24° 303° (WNW) 02:06:51 435.215
O/OREOS (USA 219) 22 Jan 01:59:34 02:03:44 36° 305° (NW) 02:07:53 437.305
DUCHIFAT 1 22 Jan 02:02:31 02:06:06 26° 295° (WNW) 02:09:40 145.980
EO-79 22 Jan 02:05:41 02:08:51 20° 298° (WNW) 02:12:01 145.935-145.965
MOZHAYETS 4 22 Jan 02:06:33 02:10:44 35° 67° (ENE) 02:14:57
ISS 22 Jan 02:10:07 02:13:24 80° 203° (SSW) 02:16:41 437.550
CUBESAT XI-V 22 Jan 02:15:12 02:17:32 14° 57° (ENE) 02:19:52 437.345
AO-7 22 Jan 02:19:44 02:23:14 13° 83° (E) 02:26:43 .
50 SAT 22 Jan 02:21:14 02:23:50 25° 264° (W) 02:26:29 437.505
BEESAT 22 Jan 02:26:11 02:30:27 34° 65° (ENE) 02:34:46 436.000
AO-91 22 Jan 02:42:34 02:46:53 57° 287° (WNW) 02:51:40 145.960
POLYITAN 1 22 Jan 02:43:03 02:43:49 10° 305° (NW) 02:44:35 437.675
BUGSAT 1 22 Jan 02:58:47 03:02:23 28° 295° (WNW) 03:06:00 437.445
UKube-1 22 Jan 03:14:04 03:16:58 18° 269° (W) 03:19:53 .
Gurwin Techsat 1B 22 Jan 03:17:05 03:22:15 53° 291° (WNW) 03:27:24 435.225
Oscar 19 22 Jan 03:21:07 03:25:52 38° 295° (WNW) 03:30:35 437.125/150
ITUPSAT 1 22 Jan 03:24:26 03:29:13 76° 255° (WSW) 03:34:03 437.325
nSIGHT-1 22 Jan 03:28:47 03:30:50 16° 222° (SW) 03:32:53 .
KKS-1 22 Jan 03:29:01 03:30:39 12° 55° (NE) 03:32:18 437.445
MOZHAYETS 4 22 Jan 03:43:48 03:47:54 31° 265° (W) 03:52:03
ISS 22 Jan 03:47:18 03:49:28 17° 222° (SW) 03:51:39 437.550
CUBESAT XI-V 22 Jan 03:49:30 03:54:12 88° 75° (ENE) 03:58:55 437.345
BEESAT 22 Jan 04:03:54 04:08:13 33° 264° (W) 04:12:33 436.000
AO-7 22 Jan 04:09:28 04:17:47 61° 104° (ESE) 04:26:01 .
ITAMSAT 1 22 Jan 04:29:44 04:34:55 61° 102° (ESE) 04:40:04 435.822/435.867
SO-50 22 Jan 04:48:19 04:51:07 16° 111° (ESE) 04:53:55 436.795
M-CUBED/EXP-1 PRIME 22 Jan 04:52:12 04:53:34 12° 96° (E) 04:54:54 437.505
Gurwin Techsat 1B 22 Jan 05:00:30 05:01:03 10° 311° (NW) 05:01:37 435.225
KKS-1 22 Jan 05:02:03 05:06:28 81° 73° (ENE) 05:10:55 437.445
STARS 22 Jan 05:14:11 05:18:21 45° 69° (ENE) 05:22:32 437.465
FALCONSAT 3 22 Jan 05:25:44 05:26:25 10° 174° (S) 05:27:04 435.103
CUBESAT XI-V 22 Jan 05:30:20 05:32:13 12° 274° (W) 05:34:06 437.345
DOVE 4 22 Jan 05:37:50 05:42:11 84° 102° (ESE) 05:46:46 437.250
STRAND 1 22 Jan 05:44:37 05:48:10 19° 58° (ENE) 05:51:44 437.568
KAITUO 1B 22 Jan 05:52:27 05:53:59 12° 89° (E) 05:55:31 145.475/437.950
XW-2F 22 Jan 05:55:52 05:58:26 17° 91° (E) 06:00:59 145.980 - 146.000
NUDT-PHONESAT 22 Jan 06:00:22 06:02:22 14° 90° (E) 06:04:21 437.300
AO-7 22 Jan 06:02:40 06:10:14 40° 305° (NW) 06:17:46 .
XW-2D 22 Jan 06:06:24 06:09:34 25° 94° (E) 06:12:42 145.860 - 145.880
ITAMSAT 1 22 Jan 06:09:57 06:13:58 23° 301° (WNW) 06:17:58 435.822/435.867
CUTE-I 22 Jan 06:13:16 06:17:46 27° 93° (E) 06:22:15 437.470
XW-2B 22 Jan 06:23:49 06:27:21 37° 97° (E) 06:30:50 145.730 - 145.750
M-CUBED/EXP-1 PRIME 22 Jan 06:25:03 06:28:20 48° 294° (WNW) 06:31:29 437.505
CUTE 1.7 + AOD 2 22 Jan 06:25:49 06:27:56 13° 88° (E) 06:30:03 437.475
SO-50 22 Jan 06:26:32 06:30:59 76° 310° (NW) 06:35:34 436.795
HO-68 22 Jan 06:30:52 06:36:27 24° 90° (E) 06:42:00 435.675
FO-29 22 Jan 06:35:48 06:41:14 29° 62° (ENE) 06:46:09 435.910
KKS-1 22 Jan 06:41:49 06:43:36 12° 272° (W) 06:45:25 437.445
STARS 22 Jan 06:51:34 06:54:54 21° 267° (W) 06:58:15 437.465
CUBEBUG 2 22 Jan 06:52:08 06:55:35 20° 90° (E) 06:59:00 437.445
LilacSat-2 22 Jan 06:53:48 06:57:38 88° 273° (W) 07:01:23 437.200
XW-2C 22 Jan 06:54:07 06:57:54 86° 108° (ESE) 07:01:39 145.795 - 145.815
UWE-3 22 Jan 06:55:40 06:57:28 12° 86° (E) 06:59:15 435.000/436.395/437.385
DOVE 4 22 Jan 07:17:14 07:19:21 13° 301° (WNW) 07:21:30 437.250
STRAND 1 22 Jan 07:21:44 07:26:49 73° 257° (WSW) 07:31:58 437.568
RS-15 22 Jan 07:22:25 07:32:48 34° 105° (ESE) 07:43:01 29.354- 29.394
AAUSAT CUBESAT 2 22 Jan 07:22:44 07:24:56 14° 89° (E) 07:27:08 437.432
KAITUO 1B 22 Jan 07:24:41 07:28:20 58° 287° (WNW) 07:31:56 145.475/437.950
XW-2F 22 Jan 07:29:11 07:32:44 40° 290° (WNW) 07:36:14 145.980 - 146.000
XW-2A 22 Jan 07:31:38 07:32:42 11° 89° (E) 07:33:45 145.665 - 145.685
NUDT-PHONESAT 22 Jan 07:32:55 07:36:30 49° 288° (WNW) 07:40:01 437.300
XW-2D 22 Jan 07:40:28 07:43:43 28° 293° (WNW) 07:46:57 145.860 - 145.880
SEEDS 22 Jan 07:44:27 07:48:32 52° 100° (E) 07:52:35 437.485
CUTE-I 22 Jan 07:52:56 07:58:03 49° 292° (WNW) 08:03:09 437.470
Oscar 11 22 Jan 07:53:15 07:55:03 12° 87° (E) 07:56:51 .
AO-7 22 Jan 07:57:16 08:00:43 13° 330° (NNW) 08:04:10 .
XW-2B 22 Jan 07:58:29 08:01:18 20° 295° (WNW) 08:04:05 145.730 - 145.750
CUTE 1.7 + AOD 2 22 Jan 08:00:02 08:04:14 67° 287° (WNW) 08:08:24 437.475
YUBILEINY 22 Jan 08:03:28 08:08:07 15° 48° (NE) 08:12:44 435.215
SO-50 22 Jan 08:08:56 08:12:13 19° 332° (NNW) 08:15:33 436.795
HO-68 22 Jan 08:17:45 08:24:55 78° 290° (WNW) 08:32:04 435.675
FO-29 22 Jan 08:19:30 08:26:05 58° 259° (W) 08:31:55 435.910
CUBEBUG 2 22 Jan 08:27:51 08:32:32 58° 288° (WNW) 08:37:11 437.445
UWE-3 22 Jan 08:29:52 08:34:35 89° 299° (WNW) 08:39:14 435.000/436.395/437.385
XW-2C 22 Jan 08:30:51 08:31:26 10° 302° (WNW) 08:32:01 145.795 - 145.815
TIGRISAT 22 Jan 08:31:02 08:34:44 26° 64° (ENE) 08:38:31 435.000
PCSat 22 Jan 08:45:20 08:47:31 12° 102° (ESE) 08:49:42 145.827
UNISAT 6 22 Jan 08:46:14 08:50:21 38° 68° (ENE) 08:54:35 437.425
O/OREOS (USA 219) 22 Jan 08:47:33 08:50:39 18° 46° (NE) 08:53:45 437.305
ZACube-1 22 Jan 08:50:03 08:54:39 80° 101° (ESE) 08:59:09 437.345
AO-73 22 Jan 08:55:50 09:00:25 80° 105° (ESE) 09:04:53 145.935
AAUSAT CUBESAT 2 22 Jan 08:56:43 09:00:48 62° 286° (WNW) 09:04:49 437.432
XW-2A 22 Jan 09:02:25 09:05:43 52° 287° (WNW) 09:08:58 145.665 - 145.685
STRAND 1 22 Jan 09:06:22 09:06:55 10° 276° (W) 09:07:29 437.568
DELFI C3 22 Jan 09:19:01 09:21:43 18° 91° (E) 09:24:25 145.870
SEEDS 22 Jan 09:20:58 09:23:52 18° 298° (WNW) 09:26:44 437.485
Oscar 11 22 Jan 09:27:24 09:31:45 78° 287° (WNW) 09:36:03 .
RS-15 22 Jan 09:31:42 09:44:06 85° 309° (NW) 09:56:16 29.354- 29.394
Max Valier Satellite 22 Jan 09:38:11 09:40:49 18° 92° (E) 09:43:25 145.860
AIST 2D 22 Jan 09:50:38 09:52:49 16° 64° (ENE) 09:55:01 435.315
BEESAT 3 22 Jan 09:52:05 09:55:54 46° 122° (ESE) 09:59:45 437.485
EO-88 22 Jan 09:53:07 09:55:37 17° 92° (E) 09:58:06 145.990 - 145.960
SO-50 22 Jan 09:53:21 09:54:30 11° 357° (N) 09:55:39 436.795
YUBILEINY 22 Jan 09:58:40 10:07:18 58° 74° (ENE) 10:15:49 435.215
PRISM 22 Jan 10:04:01 10:07:58 53° 71° (ENE) 10:11:56 437.425
HO-68 22 Jan 10:06:41 10:11:36 20° 312° (NW) 10:16:31 435.675
TIGRISAT 22 Jan 10:07:00 10:11:13 41° 263° (W) 10:15:34 435.000
UWE-3 22 Jan 10:07:56 10:10:20 14° 303° (WNW) 10:12:43 435.000/436.395/437.385
UNISAT 6 22 Jan 10:23:21 10:27:09 27° 267° (W) 10:31:03 437.425
PCSat 22 Jan 10:24:35 10:29:58 75° 121° (ESE) 10:35:24 145.827
O/OREOS (USA 219) 22 Jan 10:26:07 10:30:35 74° 247° (WSW) 10:35:03 437.305
POLYITAN 1 22 Jan 10:26:19 10:29:03 17° 60° (ENE) 10:31:48 437.675
ZACube-1 22 Jan 10:27:41 10:30:18 15° 302° (WNW) 10:32:53 437.345
AO-73 22 Jan 10:33:28 10:36:01 15° 302° (WNW) 10:38:32 145.935
